Location: Sienna
(49.6899°N, 19.1328°E)
Time: 16:08:00
(UTC+01:00)

ISS - Visible Passes

Search period start: 14 December 2018 00:00
Search period end: 24 December 2018 00:00
Orbit: 401 x 408 km, 51.6° (Epoch: 15 December)

Date Brightness Start Highest point End Pass type
(mag) Time Alt. Az. Time Alt. Az. Time Alt. Az.
14 Dec -0.4 17:16:49 10° WSW 17:17:53 11° SW 17:18:57 10° SSW visible
15 Dec -0.7 16:23:38 10° W 16:25:59 18° SW 16:28:19 10° S visible
23 Dec -0.4 06:14:39 10° SSE 06:16:01 12° SE 06:17:24 10° ESE visible
